Middlebury State AP, Middlebu, VT

12:49 PM EDT on April 26, 2017 (GMT -0400)
Middlebury State AP, Middlebu

Weather History for K6B0 - February, 2014

Change the Weather History Date:

Sunday, February 16, 2014

  Actual Average (KRUT) Record (KRUT)
Temperature  
Mean Temperature 16 °F -  
Max Temperature 22 °F 33 °F 57 °F (1949)
Min Temperature 11 °F 13 °F -13 °F (2015)
Degree Days  
Heating Degree Days 48    
Moisture  
Dew Point 3 °F    
Average Humidity 55    
Maximum Humidity 83    
Minimum Humidity 37    
Precipitation  
Precipitation 0.00 in - - ()
Sea Level Pressure  
Sea Level Pressure 29.84 in    
Wind  
Wind Speed 8 mph (WNW)    
Max Wind Speed 13 mph    
Max Gust Speed 24 mph    
Visibility 10 miles    
Events Snow    
Averages and records for this station are not official NWS values.
T = Trace of Precipitation, MM = Missing Value Source: NWS Daily Summary

Daily Weather History Graph

Daily Weather History Graph

Search for Another Location

Airport or City:

Trip Planner

Search our weather history database for the weather conditions in past years. The results will help you decide how hot, cold, wet, or windy it might be!

Date:

Astronomy

Feb. 16, 2014 Rise Set
Actual Time 6:50 AM EST 5:23 PM EST
Civil Twilight 6:20 AM EST 5:53 PM EST
Nautical Twilight 5:46 AM EST 6:26 PM EST
Astronomical Twilight 5:13 AM EST 7:00 PM EST
Moon 7:23 PM EST (2/16) 7:13 AM EST (2/16)
Length of Visible Light 11h 32m
Length of Day
10h 33m
Full, 97% of the Moon is Illuminated
Feb 16
Full
Feb 22
Last Quarter
Mar 1
New
Mar 8
First Quarter
Mar 16
Full

Hourly Weather History & Observations

Time (EST) Temp. Windchill Dew Point Humidity Pressure Visibility Wind Dir Wind Speed Gust Speed Precip Events Conditions
12:15 AM 20.7 °F 8.8 °F 16.0 °F 82% 29.73 in 10.0 mi WNW 11.5 mph 17.3 mph N/A   Overcast
12:35 AM 20.8 °F 9.7 °F 15.6 °F 80% 29.73 in 10.0 mi West 10.4 mph 17.3 mph N/A   Overcast
12:55 AM 20.3 °F 11.5 °F 15.6 °F 82% 29.74 in 10.0 mi West 6.9 mph - N/A   Overcast
1:15 AM 19.8 °F 9.9 °F 14.5 °F 80% 29.73 in 10.0 mi WNW 8.1 mph - N/A Snow Light Snow
1:35 AM 18.9 °F 7.2 °F 14.4 °F 83% 29.73 in 10.0 mi WNW 10.4 mph - N/A   Scattered Clouds
1:55 AM 18.7 °F 7.8 °F 14.0 °F 82% 29.73 in 10.0 mi WNW 9.2 mph - N/A Snow Light Snow
2:15 AM 18.3 °F 6.6 °F 13.6 °F 82% 29.73 in 7.0 mi WNW 10.4 mph 17.3 mph N/A Snow Light Snow
2:35 AM 17.6 °F 5.0 °F 13.1 °F 83% 29.72 in 10.0 mi WNW 11.5 mph - N/A Snow Light Snow
2:55 AM 17.1 °F 5.8 °F 12.6 °F 82% 29.72 in 10.0 mi NW 9.2 mph - N/A   Clear
3:15 AM 16.7 °F 4.5 °F 11.1 °F 79% 29.71 in 10.0 mi WNW 10.4 mph 18.4 mph N/A   Clear
3:35 AM 16.7 °F 4.5 °F 9.9 °F 74% 29.72 in 10.0 mi WNW 10.4 mph 16.1 mph N/A   Clear
3:55 AM 16.5 °F 4.3 °F 8.6 °F 71% 29.72 in 10.0 mi WNW 10.4 mph 16.1 mph N/A   Clear
4:15 AM 16.3 °F 3.4 °F 7.9 °F 69% 29.72 in 10.0 mi NW 11.5 mph 17.3 mph N/A   Clear
4:35 AM 15.8 °F 2.1 °F 7.0 °F 68% 29.72 in 10.0 mi NW 12.7 mph 17.3 mph N/A   Clear
4:55 AM 16.3 °F 2.7 °F 6.8 °F 66% 29.73 in 10.0 mi NW 12.7 mph 19.6 mph N/A   Clear
5:15 AM 15.8 °F 2.7 °F 6.4 °F 67% 29.74 in 10.0 mi WNW 11.5 mph 18.4 mph N/A   Clear
5:35 AM 15.1 °F 4.2 °F 5.9 °F 67% 29.75 in 10.0 mi NW 8.1 mph 18.4 mph N/A   Clear
5:55 AM 14.2 °F 0.7 °F 5.2 °F 67% 29.75 in 10.0 mi WNW 11.5 mph 17.3 mph N/A   Clear
6:15 AM 14.2 °F 2.2 °F 4.3 °F 65% 29.76 in 10.0 mi WNW 9.2 mph 16.1 mph N/A   Clear
6:35 AM 13.8 °F 2.7 °F 3.9 °F 65% 29.76 in 10.0 mi WNW 8.1 mph 19.6 mph N/A   Clear
6:55 AM 13.5 °F 0.5 °F 3.4 °F 64% 29.77 in 10.0 mi WNW 10.4 mph - N/A   Clear
7:15 AM 12.9 °F 2.6 °F 2.8 °F 64% 29.77 in 10.0 mi NW 6.9 mph - N/A   Clear
7:35 AM 12.6 °F 0.2 °F 2.5 °F 64% 29.78 in 10.0 mi NW 9.2 mph - N/A   Clear
7:55 AM 13.6 °F 3.5 °F 2.5 °F 61% 29.79 in 10.0 mi NW 6.9 mph - N/A   Clear
8:15 AM 14.0 °F 1.2 °F 1.9 °F 59% 29.79 in 10.0 mi NW 10.4 mph - N/A   Clear
8:35 AM 14.7 °F 2.9 °F 1.9 °F 57% 29.80 in 10.0 mi WNW 9.2 mph - N/A   Clear
8:55 AM 14.7 °F 5.9 °F 2.1 °F 57% 29.80 in 10.0 mi WNW 5.8 mph 10.4 mph N/A   Clear
9:15 AM 14.9 °F 4.0 °F 1.9 °F 57% 29.80 in 10.0 mi NW 8.1 mph - N/A   Clear
9:35 AM 15.6 °F 3.2 °F 1.9 °F 55% 29.81 in 10.0 mi NW 10.4 mph - N/A   Clear
9:55 AM 15.6 °F 4.9 °F 2.1 °F 55% 29.81 in 10.0 mi WNW 8.1 mph - N/A   Clear
10:15 AM 16.3 °F 4.1 °F 2.1 °F 54% 29.83 in 10.0 mi NW 10.4 mph - N/A   Clear
10:35 AM 15.8 °F 4.2 °F 0.9 °F 52% 29.84 in 10.0 mi West 9.2 mph - N/A   Scattered Clouds
10:55 AM 17.2 °F 6.0 °F 0.9 °F 49% 29.84 in 10.0 mi WNW 9.2 mph - N/A   Scattered Clouds
11:15 AM 17.4 °F 8.0 °F 0.5 °F 48% 29.84 in 10.0 mi WNW 6.9 mph - N/A   Scattered Clouds
11:35 AM 17.8 °F - 1.0 °F 48% 29.84 in 10.0 mi Calm Calm - N/A   Clear
11:55 AM 18.3 °F - 0.5 °F 46% 29.84 in 10.0 mi Calm Calm - N/A   Clear
12:15 PM 19.0 °F - 1.4 °F 46% 29.84 in 10.0 mi Calm Calm - N/A   Clear
12:35 PM 20.5 °F - 2.3 °F 45% 29.85 in 10.0 mi Calm Calm - N/A   Clear
12:55 PM 20.5 °F - 2.5 °F 46% 29.84 in 10.0 mi Calm Calm - N/A   Clear
1:15 PM 21.6 °F 16.8 °F 3.4 °F 46% 29.84 in 10.0 mi South 3.5 mph - N/A   Clear
1:35 PM 21.4 °F 16.6 °F 2.8 °F 45% 29.84 in 10.0 mi South 3.5 mph - N/A   Clear
1:55 PM 21.7 °F - 2.8 °F 44% 29.84 in 10.0 mi Calm Calm - N/A   Clear
2:15 PM 22.1 °F - 2.7 °F 43% 29.84 in 10.0 mi Calm Calm - N/A   Clear
2:35 PM 21.7 °F - 2.3 °F 43% 29.84 in 10.0 mi Calm Calm - N/A   Clear
2:55 PM 22.8 °F - 2.3 °F 41% 29.84 in 10.0 mi Calm Calm - N/A   Clear
3:15 PM 21.7 °F - 1.4 °F 41% 29.84 in 10.0 mi Calm Calm - N/A   Clear
3:35 PM 22.1 °F - 1.0 °F 40% 29.85 in 10.0 mi Calm Calm - N/A   Clear
3:55 PM 22.1 °F - 0.3 °F 39% 29.85 in 10.0 mi Calm Calm - N/A   Clear
4:15 PM 21.7 °F - -0.0 °F 39% 29.85 in 10.0 mi Calm Calm - N/A   Clear
4:35 PM 22.1 °F 17.4 °F -0.8 °F 37% 29.85 in 10.0 mi West 3.5 mph - N/A   Clear
4:55 PM 20.7 °F - -0.6 °F 40% 29.86 in 10.0 mi Calm Calm - N/A   Clear
5:15 PM 19.0 °F - 1.4 °F 46% 29.86 in 10.0 mi Calm Calm - N/A   Clear
5:35 PM 16.9 °F 11.5 °F 0.5 °F 49% 29.87 in 10.0 mi West 3.5 mph - N/A   Clear
5:55 PM 17.6 °F 9.3 °F 1.0 °F 48% 29.87 in 10.0 mi WNW 5.8 mph - N/A   Clear
6:15 PM 18.0 °F - 1.0 °F 48% 29.89 in 10.0 mi Calm Calm - N/A   Clear
6:35 PM 16.7 °F - 0.7 °F 49% 29.89 in 10.0 mi Calm Calm - N/A   Clear
6:55 PM 16.3 °F - 1.0 °F 51% 29.91 in 10.0 mi Calm Calm - N/A   Clear
7:15 PM 16.0 °F 7.4 °F -0.2 °F 49% 29.92 in 10.0 mi WNW 5.8 mph - N/A   Clear
7:35 PM 16.7 °F 6.2 °F -2.2 °F 43% 29.93 in 10.0 mi WNW 8.1 mph - N/A   Clear
7:55 PM 16.5 °F 3.6 °F -3.5 °F 41% 29.94 in 10.0 mi NW 11.5 mph 16.1 mph N/A   Clear
8:15 PM 16.0 °F 3.6 °F -4.5 °F 40% 29.95 in 10.0 mi NW 10.4 mph 16.1 mph N/A   Clear
8:35 PM 15.8 °F 2.1 °F -5.1 °F 39% 29.97 in 10.0 mi NW 12.7 mph 24.2 mph N/A   Clear
8:55 PM 15.4 °F 3.0 °F -4.9 °F 40% 29.98 in 10.0 mi NW 10.4 mph 18.4 mph N/A   Clear
9:15 PM 15.4 °F 3.8 °F -5.3 °F 40% 29.98 in 10.0 mi NW 9.2 mph 19.6 mph N/A   Clear
9:35 PM 14.9 °F 4.0 °F -4.9 °F 41% 29.99 in 10.0 mi NW 8.1 mph - N/A   Clear
9:55 PM 14.2 °F 8.4 °F -4.7 °F 43% 29.99 in 10.0 mi West 3.5 mph - N/A   Clear
10:15 PM 12.7 °F 6.7 °F -4.2 °F 47% 30.00 in 10.0 mi West 3.5 mph - N/A   Clear
10:35 PM 12.9 °F 2.6 °F -4.5 °F 46% 30.01 in 10.0 mi WNW 6.9 mph - N/A   Clear
10:55 PM 12.9 °F 2.6 °F -4.9 °F 45% 30.02 in 10.0 mi WNW 6.9 mph - N/A   Clear
11:15 PM 12.2 °F 2.9 °F -4.5 °F 47% 30.03 in 10.0 mi West 5.8 mph - N/A   Clear
11:35 PM 11.5 °F -0.2 °F -4.5 °F 49% 30.04 in 10.0 mi WNW 8.1 mph - N/A   Clear
11:55 PM 12.2 °F 1.7 °F -5.3 °F 46% 30.05 in 10.0 mi NW 6.9 mph 10.4 mph N/A   Clear